CZ-4B R/B, 48158

Orbit data source: Space-Track

CZ-4B R/B, 48158 is space debris in SSO originally from a launch on Thu, 08 Apr 2021 UTC launched from the Taiyaun Space Center, China (TSC). Debris objects in space refer to the collection of defunct objects orbiting the Earth. Examples of debris include non-operational satellites, rocket bodies, and fragments generated from explosions, collisions, or faulty payload assembly.

Loading next visibility...
Identifier
48158, 2021-028B
Orbit
SSO
Country
Flag of CNCN / PRC
Related business
Manufacturer
SAST
Mission
Spacecraft
Bus & Motor
CZ-4 STAGE 3, Unknown motor
Mass
~1,000 kg wet, ~1,000 kg dry
Launch date (UTC)
2021-04-08 (5 years ago)
Launch vehicle
Unknown
Launch site
Taiyaun Space Center, China (TSC)
Object type
Payload
Rocket body
Debris
Shape & HBR
Cyl, 2.5 m
Radar Cross Section
14.536 m², Large (>1 m²)

Expand to show TLE details & history
Last TLE update: 2 days ago

TLE from 2 days ago
0 CZ-4B R/B
1 48158U 21028B   26171.32648367  .00000001  00000-0  27572-4 0  9993
2 48158  99.4830 296.2882 0159497 211.3344 147.8242 14.05433070266606
Epoch: 2026-06-20T07:50Z
TLE epoch observation values (Epoch: 2026-06-20T07:50:08.189Z)
Latitude
-0°
Longitude
-89.78863°
Altitude
976.362 km
Speed
7.313 km/s
True Right ascension
19h 45m 09s
True Declination
0° 00' 00"
Sunlit
Object was in full shadow at epoch
Visualization orbit readout
Latitude
Unknown
Longitude
Unknown
Altitude
Unknown
Speed
Unknown
Apparent Right ascension
Unknown
Apparent Declination
Unknown
Sunlit
N/A
Visualization observer readout
Local Sidereal Time
21:26:12
Azimuth
Unknown
Elevation
Unknown
Doppler factor
Unknown
Orbital elements
Apogee altitude
987.899 km
Perigee altitude
756.616 km
Semi-major axis
7,250.394 km
Eccentricity
0.01595
Inclination
99.483°
RAAN
296.2882°
Arg. of periapsis
211.3344°
True anomaly
148.78128°
Mean anomaly
147.8242°
Eccentric anomaly
148.30434°
Mean motion
3.51561 °/min
Orbital period
102.4 mins
BSTAR
0.000027572
Loading maneuver chart data...
Computing Atmospheric mass density...
Loading historical data...
Loading historical data...
Loading historical data...
Loading historical data...
Loading historical data...
Loading historical data...
Loading historical data...
Other satellites on launch #28 in the year 2021 (2021-04-08 UTC)

Documentation

Showing up to 5 results
|